Ardabil, Iran

12:46 PM +0330 on October 15, 2019 (GMT +0330)
Ardabil

Weather History for OITL - August, 2019

Change the Weather History Date:

Saturday, August 10, 2019

  Actual Average (WUND) Record (WUND)
Temperature  
Mean Temperature 68 °F -  
Max Temperature 78 °F - - (-1)
Min Temperature 57 °F - - (-1)
Cooling Degree Days 2    
Growing Degree Days 18 (Base 50)    
Moisture  
Dew Point 55 °F    
Average Humidity 66    
Maximum Humidity 94    
Minimum Humidity 47    
Precipitation  
Precipitation 0.00 in - - ()
Sea Level Pressure  
Sea Level Pressure 29.93 in    
Wind  
Wind Speed 8 mph ()    
Max Wind Speed 18 mph    
Max Gust Speed -    
Visibility 6.2 miles    
Events Thunderstorm    
Averages and records for this station are not official NWS values.
T = Trace of Precipitation, MM = Missing Value Source: Averaged Metar Reports

Daily Weather History Graph

Daily Weather History Graph

Search for Another Location

Airport or City:

Astronomy

Aug. 10, 2019 Rise Set
Actual Time 6:25 AM +0430 8:16 PM +0430
Civil Twilight 5:57 AM +0430 8:45 PM +0430
Nautical Twilight 5:22 AM +0430 9:20 PM +0430
Astronomical Twilight 4:45 AM +0430 9:57 PM +0430
Moon 4:35 PM +0430 (8/10) 1:47 AM +0430 (8/10)
Length of Visible Light 14h 48m
Length of Day
13h 51m
Waxing Gibbous, 76% of the Moon is Illuminated
Aug 10
Waxing Gibbous
Aug 15
Full
Aug 23
Last Quarter
Aug 30
New
Sep 6
First Quarter

Hourly Weather History & Observations

Time (+0430) Temp. Dew Point Humidity Pressure Visibility Wind Dir Wind Speed Gust Speed Precip Events Conditions
12:22 AM 60.8 °F 51.8 °F 72% 30.01 in 6.2 mi East 11.5 mph - N/A   Mostly Cloudy
1:20 AM 60.8 °F 53.6 °F 77% 30.04 in 6.2 mi SE 9.2 mph - N/A Thunderstorm Thunderstorm
2:22 AM 57.2 °F 55.4 °F 94% 30.01 in 6.2 mi SSE 9.2 mph - N/A   Mostly Cloudy
3:21 AM 57.2 °F 53.6 °F 88% 29.98 in 6.2 mi ENE 6.9 mph - N/A   Mostly Cloudy
4:20 AM 57.2 °F 55.4 °F 94% 29.95 in 6.2 mi East 9.2 mph - N/A   Mostly Cloudy
5:21 AM 59.0 °F 55.4 °F 88% 29.98 in 6.2 mi Calm Calm - N/A   Mostly Cloudy
6:21 AM 57.2 °F 55.4 °F 94% 29.98 in 6.2 mi Calm Calm - N/A   Mostly Cloudy
6:30 AM 57.2 °F 55.4 °F 94% 29.98 in 6.2 mi Calm Calm - N/A   Mostly Cloudy
7:22 AM 57.2 °F 55.4 °F 94% 29.98 in 6.2 mi SW 4.6 mph - N/A   Mostly Cloudy
7:30 AM 57.2 °F 55.4 °F 94% 29.98 in 6.2 mi SW 4.6 mph - N/A   Mostly Cloudy
8:22 AM 60.8 °F 51.8 °F 72% 29.98 in 6.2 mi West 4.6 mph - N/A   Partly Cloudy
8:30 AM 60.8 °F 51.8 °F 72% 29.98 in 6.2 mi West 4.6 mph - N/A   Partly Cloudy
9:23 AM 64.4 °F 51.8 °F 64% 29.95 in 6.2 mi Variable 4.6 mph - N/A   Partly Cloudy
9:30 AM 64.4 °F 51.8 °F 64% 29.95 in 6.2 mi Variable 4.6 mph - N/A   Partly Cloudy
10:00 AM 66.2 °F 53.6 °F 64% 29.95 in 6.2 mi West 9.2 mph - N/A   Scattered Clouds
10:22 AM 66.2 °F 51.8 °F 60% 29.95 in 6.2 mi North 6.9 mph - N/A   Scattered Clouds
10:30 AM 66.2 °F 51.8 °F 60% 29.95 in 6.2 mi North 6.9 mph - N/A   Scattered Clouds
11:00 AM 68.0 °F 53.6 °F 60% 29.95 in 6.2 mi Variable 4.6 mph - N/A   Scattered Clouds
11:23 AM 69.8 °F 53.6 °F 56% 29.95 in 6.2 mi Variable 4.6 mph - N/A   Scattered Clouds
11:30 AM 69.8 °F 53.6 °F 56% 29.95 in 6.2 mi Variable 4.6 mph - N/A   Scattered Clouds
12:00 PM 71.6 °F 51.8 °F 50% 29.95 in 6.2 mi Variable 6.9 mph - N/A   Scattered Clouds
12:23 PM 73.4 °F 53.6 °F 50% 29.92 in 6.2 mi West 9.2 mph - N/A   Mostly Cloudy
12:30 PM 73.4 °F 53.6 °F 50% 29.92 in 6.2 mi West 9.2 mph - N/A   Mostly Cloudy
1:00 PM 77.0 °F 55.4 °F 47% 29.92 in 6.2 mi NNE 9.2 mph - N/A   Mostly Cloudy
1:21 PM 77.0 °F 55.4 °F 47% 29.92 in 6.2 mi NW 6.9 mph - N/A   Scattered Clouds
2:21 PM 78.8 °F 59.0 °F 51% 29.86 in 6.2 mi ENE 18.4 mph - N/A   Scattered Clouds
2:30 PM 78.8 °F 59.0 °F 51% 29.86 in 6.2 mi ENE 18.4 mph - N/A   Scattered Clouds
3:23 PM 77.0 °F 59.0 °F 54% 29.86 in 6.2 mi East 18.4 mph - N/A   Scattered Clouds
3:30 PM 77.0 °F 59.0 °F 54% 29.86 in 6.2 mi East 18.4 mph - N/A   Scattered Clouds
4:22 PM 75.2 °F 57.2 °F 53% 29.86 in 6.2 mi ENE 18.4 mph - N/A   Scattered Clouds
4:30 PM 75.2 °F 57.2 °F 53% 29.86 in 6.2 mi ENE 18.4 mph - N/A   Scattered Clouds
5:22 PM 73.4 °F 57.2 °F 57% 29.86 in 6.2 mi ENE 16.1 mph - N/A   Scattered Clouds
5:30 PM 73.4 °F 57.2 °F 57% 29.86 in 6.2 mi ENE 16.1 mph - N/A   Scattered Clouds
6:21 PM 69.8 °F 55.4 °F 60% 29.86 in 6.2 mi ENE 18.4 mph - N/A   Scattered Clouds
6:30 PM 69.8 °F 55.4 °F 60% 29.86 in 6.2 mi ENE 18.4 mph - N/A   Scattered Clouds
7:00 PM 68.0 °F 55.4 °F 64% 29.86 in 6.2 mi ENE 18.4 mph - N/A   Scattered Clouds
7:21 PM 68.0 °F 55.4 °F 64% 29.86 in 6.2 mi East 18.4 mph - N/A   Scattered Clouds
7:30 PM 68.0 °F 55.4 °F 64% 29.86 in 6.2 mi East 18.4 mph - N/A   Scattered Clouds
8:22 PM 64.4 °F 53.6 °F 68% 29.89 in 6.2 mi East 18.4 mph - N/A   Scattered Clouds
9:20 PM 64.4 °F 53.6 °F 68% 29.92 in 6.2 mi ENE 11.5 mph - N/A   Scattered Clouds
10:21 PM 64.4 °F 53.6 °F 68% 29.92 in 6.2 mi ENE 11.5 mph - N/A   Scattered Clouds
11:22 PM 62.6 °F 53.6 °F 72% 29.95 in 6.2 mi East 11.5 mph - N/A   Scattered Clouds